Flag for Germany Weather past 2 weeks in Haan, North Rhine-Westphalia, Germany

Now
66 °F

Clear.


Feels Like: 66 °F
Forecast: 57 / 74 °F
Wind: 5 mph from Southwest

Location: Duesseldorf

Current Time: Jul 6, 2015 at 12:06:55 AM

Latest Report: Jul 5, 2015 at 11:20 PM


Visibility: 10 mi

Pressure: 30.07 "Hg

Humidity: 78%

Dew point: 59 °F

Location of HaanLocation

Historic Weather in Haan — Graph

°F

Haan temperature yesterday

Maximum temperature yesterday: 88 °F (at 2:50 PM)
Minimum temperature yesterday: 66 °F (at 10:20 PM)
Average temperature yesterday: 75 °F

Past Weeks' High & Low Weather Summary

 TemperatureHumidityPressure
High99 °F (Jul 2, 3:20 PM)100% (Jun 22, 8:50 AM)30.24 "Hg (Jun 22, 8:50 AM)
Low50 °F (Jun 22, 10:20 PM)23% (Jul 1, 5:20 PM)29.71 "Hg (Jun 22, 5:50 PM)
Average70 °F64%30.06 "Hg
* Reported Jun 20 10:20 PM — Jul 5 10:20 PM, Haan, Weather by CustomWeather, © 2015

Note: Actual official high and low records may vary slightly from our data, if they occured in-between our weather recording intervals... More about our weather records

Advertising

Haan weather history for previous 24 hours

 ConditionsComfort  
Time TempWeatherWind HumidityBarometerVisibility
10:20 PM
Sun, Jul 5
66 °FBroken clouds.5 mph83%30.04 "HgN/A
9:50 PM68 °FPartly sunny.6 mph78%30.01 "HgN/A
9:20 PM68 °FBroken clouds.5 mph78%29.98 "HgN/A
8:50 PM68 °FSprinkles. Partly sunny.1 mph78%30.01 "HgN/A
8:20 PM68 °FSprinkles. Broken clouds.6 mph78%29.98 "HgN/A
7:50 PM70 °FSprinkles. Partly sunny.9 mph69%30.01 "HgN/A
7:20 PM72 °FSunny.9 mph65%29.98 "Hg10 mi
6:50 PM72 °FPartly sunny.20 mph61%29.98 "HgN/A
6:20 PM73 °FThundershowers. Scattered clouds.20 mph61%29.98 "HgN/A
5:50 PM73 °FScattered clouds.23 mph61%29.95 "HgN/A
5:20 PM84 °FScattered clouds.22 mph51%29.89 "HgN/A
4:50 PM88 °FSunny.14 mph52%29.86 "Hg10 mi
4:20 PM88 °FSunny.8 mph55%29.86 "Hg10 mi
3:50 PM86 °FThundershowers. Partly sunny.6 mph55%29.89 "HgN/A
3:20 PM86 °FThundershowers. Scattered clouds.9 mph55%29.92 "HgN/A
2:50 PM88 °FPassing clouds.7 mph52%29.89 "HgN/A
2:20 PM86 °FScattered clouds.7 mph55%29.92 "HgN/A
1:50 PM84 °FScattered clouds.9 mph62%29.95 "HgN/A
1:20 PM82 °FBroken clouds.9 mph62%29.95 "HgN/A
12:50 PM81 °FBroken clouds.7 mph70%29.98 "HgN/A
12:20 PM79 °FPartly sunny.13 mph70%29.98 "HgN/A
11:50 AM77 °FPartly sunny.5 mph79%29.98 "HgN/A
11:20 AM75 °FPartly sunny.8 mph83%29.98 "HgN/A
10:50 AM73 °FPartly sunny.3 mph89%30.01 "HgN/A
10:20 AM72 °FBroken clouds.6 mph88%30.01 "HgN/A
9:50 AM68 °FThunderstorms. Partly sunny.9 mph94%30.04 "Hg5 mi
9:20 AM68 °FThunderstorms. Partly sunny.16 mph94%30.01 "Hg4 mi
8:50 AM68 °FThunderstorms. Partly sunny.9 mph88%30.07 "HgN/A
8:20 AM68 °FSprinkles. Broken clouds.8 mph88%30.04 "HgN/A
7:50 AM70 °FBroken clouds.6 mph83%30.07 "HgN/A
7:20 AM68 °FBroken clouds.6 mph83%30.07 "HgN/A
6:50 AM68 °FBroken clouds.7 mph83%30.07 "HgN/A
6:20 AM68 °FSprinkles. Passing clouds.7 mph83%30.09 "HgN/A
5:20 AM70 °FClear.3 mph73%30.09 "Hg10 mi
4:50 AM70 °FClear.6 mph73%30.09 "Hg10 mi
4:20 AM70 °FClear.8 mph73%30.09 "Hg10 mi
3:50 AM72 °FClear.6 mph69%30.12 "Hg10 mi
3:20 AM72 °FClear.7 mph69%30.12 "Hg10 mi
2:50 AM72 °FClear.7 mph69%30.12 "Hg10 mi
2:20 AM73 °FClear.8 mph61%30.12 "Hg10 mi
1:50 AM75 °FClear.9 mph57%30.12 "Hg10 mi
1:20 AM77 °FClear.7 mph51%30.12 "Hg10 mi
12:50 AM79 °FClear.7 mph51%30.09 "Hg10 mi
12:20 AM79 °FClear.6 mph51%30.09 "Hg10 mi
Weather by CustomWeather, © 2015

See weather overviewHow to use our weather pages